Flag for Canada Weather past 2 weeks in Edmundston, New Brunswick, Canada

Now
45 °F

Cool.


Feels Like: 45 °F
Forecast: 48 / 74 °F
Wind: 1 mph from South

Location: St Leonard

Current Time: Aug 30, 2014 at 6:13:07 AM

Latest Report: Aug 30, 2014 at 5:00 AM


Visibility: N/A

Pressure: 30.19 "Hg

Humidity: 93%

Dew point: 43 °F

Location of EdmundstonLocation

Historic Weather in Edmundston — Graph

°F

Edmundston temperature yesterday

Maximum temperature yesterday: 70 °F (at 6:00 PM)
Minimum temperature yesterday: 41 °F (at 6:00 AM)
Average temperature yesterday: 55 °F

Past Weeks' High & Low Weather Summary

 TemperatureHumidityPressure
High86 °F (Aug 25, 5:00 PM)100% (Aug 18, 10:00 AM)30.22 "Hg (Aug 18, 10:00 AM)
Low41 °F (Aug 29, 6:00 AM)35% (Aug 25, 5:00 PM)29.70 "Hg (Aug 18, 5:00 AM)
Average63 °F79%29.97 "Hg
* Reported Aug 15 5:00 AM — Aug 30 4:00 AM, Edmundston, Weather by CustomWeather, © 2014

Note: Actual official high and low records may vary slightly from our data, if they occured in-between our weather recording intervals... More about our weather records

Advertising

Edmundston weather history for previous 24 hours

 ConditionsComfort  
Time TempWeatherWind HumidityBarometerVisibility
4:00 AM
Aug 30
46 °FCool.1 mph93%30.19 "HgN/A
3:00 AM46 °FCool.1 mph92%30.20 "HgN/A
2:00 AM47 °FCool.1 mph93%30.20 "HgN/A
1:00 AM48 °FCool.1 mph90%30.19 "HgN/A
12:00 AM49 °FCool.2 mph88%30.19 "HgN/A
11:00 PM
Aug 29
50 °FCool.1 mph89%30.19 "HgN/A
10:00 PM52 °FCool.1 mph87%30.19 "HgN/A
9:00 PM55 °FCool.No wind86%30.18 "HgN/A
8:00 PM63 °FMild.No wind67%30.17 "HgN/A
7:00 PM69 °FMild.1 mph44%30.16 "HgN/A
6:00 PM70 °FMild.2 mph42%30.16 "HgN/A
4:00 PM69 °FMild.2 mph43%30.16 "HgN/A
3:00 PM68 °FMild.2 mph44%30.16 "HgN/A
2:00 PM66 °FMild.1 mph50%30.17 "HgN/A
1:00 PM64 °FMild.5 mph55%30.17 "HgN/A
12:00 PM63 °FMild.2 mph56%30.17 "HgN/A
11:00 AM59 °FCool.3 mph70%30.18 "HgN/A
10:00 AM54 °FCool.2 mph73%30.16 "HgN/A
9:00 AM48 °FCool.2 mph87%30.14 "HgN/A
8:00 AM43 °FQuite cool.2 mph95%30.13 "HgN/A
7:00 AM41 °FQuite cool.3 mph91%30.11 "HgN/A
6:00 AM41 °FQuite cool.2 mph97%30.08 "HgN/A
Weather by CustomWeather, © 2014

See weather overviewHow to use our weather pages